Time,TemperatureF,DewpointF,PressureIn,WindDirection,WindDirectionDegrees,WindSpeedMPH,WindSpeedGustMPH,Humidity,HourlyPrecipIn,Conditions,Clouds,dailyrainin,SoftwareType,DateUTC
2014-02-13 00:12:00,18.0,13.0,30.05,ESE,113,0.0,-999.0,80,-99.99,,,-99.99,,2014-02-13 06:12:00,
2014-02-13 00:22:00,18.0,13.0,30.06,ESE,113,0.0,-999.0,80,-99.99,,,-99.99,,2014-02-13 06:22:00,
2014-02-13 00:42:00,18.0,13.0,30.05,ESE,113,0.0,-999.0,79,-99.99,,,-99.99,,2014-02-13 06:42:00,
2014-02-13 00:52:00,18.0,13.0,30.04,ESE,113,0.0,-999.0,79,-99.99,,,-99.99,,2014-02-13 06:52:00,
2014-02-13 01:02:00,18.0,13.0,30.04,ESE,113,0.0,-999.0,79,-99.99,,,-99.99,,2014-02-13 07:02:00,
2014-02-13 01:12:00,18.0,13.0,30.04,ESE,113,0.0,-999.0,79,-99.99,,,-99.99,,2014-02-13 07:12:00,
2014-02-13 01:22:00,18.0,13.0,30.04,ESE,113,0.0,-999.0,79,-99.99,,,-99.99,,2014-02-13 07:22:00,
2014-02-13 02:11:00,13.0,8.0,30.03,ESE,113,0.0,-999.0,81,-99.99,,,-99.99,,2014-02-13 08:11:00,
2014-02-13 02:22:00,13.0,8.0,30.02,ESE,113,0.0,-999.0,81,-99.99,,,-99.99,,2014-02-13 08:22:00,
2014-02-13 02:32:00,13.0,8.0,30.02,ESE,113,0.0,-999.0,81,-99.99,,,-99.99,,2014-02-13 08:32:00,
2014-02-13 02:41:00,11.0,7.0,30.02,ESE,113,0.0,-999.0,83,-99.99,,,-99.99,,2014-02-13 08:41:00,
2014-02-13 02:42:00,13.0,8.0,30.02,ESE,113,0.0,-999.0,81,-99.99,,,-99.99,,2014-02-13 08:42:00,
2014-02-13 02:52:00,11.0,7.0,30.02,ESE,113,0.0,-999.0,82,-99.99,,,-99.99,,2014-02-13 08:52:00,
2014-02-13 03:11:00,11.0,7.0,30.02,ESE,113,0.0,-999.0,83,-99.99,,,-99.99,,2014-02-13 09:11:00,
2014-02-13 03:22:00,11.0,7.0,30.02,ESE,113,0.0,-999.0,83,-99.99,,,-99.99,,2014-02-13 09:22:00,
2014-02-13 03:33:00,11.0,7.0,30.02,ESE,113,0.0,-999.0,83,-99.99,,,-99.99,,2014-02-13 09:33:00,
2014-02-13 03:53:00,8.0,4.0,29.98,ESE,113,0.0,-999.0,85,-99.99,,,-99.99,,2014-02-13 09:53:00,
2014-02-13 04:13:00,8.0,5.0,29.97,ESE,113,0.0,-999.0,86,-99.99,,,-99.99,,2014-02-13 10:13:00,
2014-02-13 04:23:00,10.0,7.0,29.96,ESE,113,1.0,-999.0,86,-99.99,,,-99.99,,2014-02-13 10:23:00,
2014-02-13 04:43:00,9.0,5.0,29.95,ESE,113,0.0,-999.0,85,-99.99,,,-99.99,,2014-02-13 10:43:00,
2014-02-13 04:52:00,9.0,5.0,29.95,ESE,113,0.0,-999.0,85,-99.99,,,-99.99,,2014-02-13 10:52:00,
2014-02-13 05:12:00,9.0,5.0,29.96,ESE,113,0.0,-999.0,85,-99.99,,,-99.99,,2014-02-13 11:12:00,
2014-02-13 05:22:00,9.0,5.0,29.96,ESE,113,0.0,-999.0,85,-99.99,,,-99.99,,2014-02-13 11:22:00,
2014-02-13 05:33:00,9.0,5.0,29.96,ESE,113,0.0,-999.0,85,-99.99,,,-99.99,,2014-02-13 11:33:00,
2014-02-13 05:42:00,9.0,5.0,29.96,ESE,113,0.0,-999.0,85,-99.99,,,-99.99,,2014-02-13 11:42:00,
2014-02-13 06:12:00,9.0,6.0,29.96,ESE,113,0.0,-999.0,88,-99.99,,,-99.99,,2014-02-13 12:12:00,
2014-02-13 06:22:00,9.0,6.0,29.96,ESE,113,0.0,-999.0,88,-99.99,,,-99.99,,2014-02-13 12:22:00,
2014-02-13 06:42:00,11.0,7.0,29.93,ESE,116,0.0,-999.0,82,-99.99,,,-99.99,,2014-02-13 12:42:00,
2014-02-13 06:53:00,10.0,6.0,29.91,ESE,116,1.0,-999.0,82,-99.99,,,-99.99,,2014-02-13 12:53:00,
2014-02-13 07:11:00,10.0,6.0,29.91,ESE,116,1.0,-999.0,82,-99.99,,,-99.99,,2014-02-13 13:11:00,
2014-02-13 07:22:00,9.0,5.0,29.90,ESE,116,0.0,-999.0,83,-99.99,,,-99.99,,2014-02-13 13:22:00,
2014-02-13 07:42:00,8.0,4.0,29.91,ESE,116,0.0,-999.0,84,-99.99,,,-99.99,,2014-02-13 13:42:00,
2014-02-13 07:52:00,8.0,4.0,29.90,ESE,116,0.0,-999.0,85,-99.99,,,-99.99,,2014-02-13 13:52:00,
2014-02-13 08:12:00,8.0,4.0,29.88,ESE,116,1.0,-999.0,85,-99.99,,,-99.99,,2014-02-13 14:12:00,
2014-02-13 08:22:00,8.0,4.0,29.89,ESE,116,0.0,-999.0,84,-99.99,,,-99.99,,2014-02-13 14:22:00,
2014-02-13 08:32:00,8.0,4.0,29.89,ESE,116,0.0,-999.0,84,-99.99,,,-99.99,,2014-02-13 14:32:00,
2014-02-13 08:42:00,8.0,4.0,29.89,ESE,116,0.0,-999.0,84,-99.99,,,-99.99,,2014-02-13 14:42:00,
2014-02-13 08:52:00,14.0,9.0,29.87,SSE,153,2.0,-999.0,79,-99.99,,,-99.99,,2014-02-13 14:52:00,
2014-02-13 09:12:00,19.0,11.0,29.84,SSE,161,3.0,-999.0,71,-99.99,,,-99.99,,2014-02-13 15:12:00,
2014-02-13 09:22:00,17.0,10.0,29.87,SSE,160,2.0,-999.0,75,-99.99,,,-99.99,,2014-02-13 15:22:00,
2014-02-13 09:43:00,19.0,11.0,29.84,SSE,161,3.0,-999.0,71,-99.99,,,-99.99,,2014-02-13 15:43:00,
2014-02-13 09:54:00,19.0,11.0,29.84,SSE,161,3.0,-999.0,71,-99.99,,,-99.99,,2014-02-13 15:54:00,
2014-02-13 10:03:00,19.0,11.0,29.84,SSE,161,3.0,-999.0,71,-99.99,,,-99.99,,2014-02-13 16:03:00,
2014-02-13 10:23:00,22.0,14.0,29.83,SSW,196,2.0,-999.0,70,-99.99,,,-99.99,,2014-02-13 16:23:00,
2014-02-13 10:52:00,24.0,15.0,29.79,SSE,155,3.0,-999.0,68,-99.99,,,-99.99,,2014-02-13 16:52:00,
2014-02-13 11:03:00,24.0,15.0,29.79,SSE,155,3.0,-999.0,68,-99.99,,,-99.99,,2014-02-13 17:03:00,
2014-02-13 11:12:00,24.0,15.0,29.79,SSE,155,3.0,-999.0,68,-99.99,,,-99.99,,2014-02-13 17:12:00,
2014-02-13 11:22:00,24.0,15.0,29.79,SSE,155,3.0,-999.0,68,-99.99,,,-99.99,,2014-02-13 17:22:00,
2014-02-13 11:52:00,28.0,16.0,29.75,SE,145,4.0,-999.0,61,-99.99,,,-99.99,,2014-02-13 17:52:00,
2014-02-13 12:12:00,29.0,18.0,29.73,South,171,3.0,-999.0,64,-99.99,,,-99.99,,2014-02-13 18:12:00,
2014-02-13 12:22:00,28.0,17.0,29.72,SSE,161,4.0,-999.0,64,-99.99,,,-99.99,,2014-02-13 18:22:00,
2014-02-13 12:42:00,29.0,19.0,29.71,SSE,150,4.0,-999.0,66,-99.99,,,-99.99,,2014-02-13 18:42:00,
2014-02-13 12:53:00,29.0,20.0,29.70,South,171,5.0,-999.0,69,-99.99,,,-99.99,,2014-02-13 18:53:00,
2014-02-13 13:12:00,30.0,22.0,29.68,South,169,7.0,-999.0,72,-99.99,,,-99.99,,2014-02-13 19:12:00,
2014-02-13 13:23:00,30.0,22.0,29.67,SSW,211,7.0,-999.0,73,-99.99,,,-99.99,,2014-02-13 19:23:00,
2014-02-13 13:33:00,30.0,22.0,29.67,SSW,211,7.0,-999.0,73,-99.99,,,-99.99,,2014-02-13 19:33:00,
2014-02-13 13:42:00,30.0,22.0,29.67,SSW,211,7.0,-999.0,73,-99.99,,,-99.99,,2014-02-13 19:42:00,
2014-02-13 13:52:00,31.0,24.0,29.65,SSW,209,5.0,-999.0,74,-99.99,,,-99.99,,2014-02-13 19:52:00,
2014-02-13 14:11:00,31.0,24.0,29.64,SSW,201,5.0,-999.0,74,-99.99,,,-99.99,,2014-02-13 20:11:00,
2014-02-13 14:22:00,31.0,24.0,29.64,SSW,201,5.0,-999.0,74,-99.99,,,-99.99,,2014-02-13 20:22:00,
2014-02-13 14:42:00,33.0,26.0,29.63,SW,216,4.0,-999.0,75,-99.99,,,-99.99,,2014-02-13 20:42:00,
2014-02-13 14:52:00,33.0,26.0,29.62,SW,215,5.0,-999.0,75,-99.99,,,-99.99,,2014-02-13 20:52:00,
2014-02-13 15:11:00,34.0,27.0,29.62,SW,226,6.0,-999.0,75,-99.99,,,-99.99,,2014-02-13 21:11:00,
2014-02-13 15:22:00,34.0,27.0,29.61,SSW,208,8.0,-999.0,75,-99.99,,,-99.99,,2014-02-13 21:22:00,
2014-02-13 15:43:00,34.0,27.0,29.62,SW,222,9.0,-999.0,76,-99.99,,,-99.99,,2014-02-13 21:43:00,
2014-02-13 15:54:00,35.0,28.0,29.62,SSW,200,8.0,-999.0,76,-99.99,,,-99.99,,2014-02-13 21:54:00,
2014-02-13 16:13:00,35.0,28.0,29.62,WSW,238,8.0,-999.0,76,-99.99,,,-99.99,,2014-02-13 22:13:00,
2014-02-13 16:23:00,34.0,28.0,29.62,SW,225,9.0,-999.0,78,-99.99,,,-99.99,,2014-02-13 22:23:00,
2014-02-13 16:43:00,34.0,28.0,29.62,SW,229,8.0,-999.0,79,-99.99,,,-99.99,,2014-02-13 22:43:00,
2014-02-13 16:53:00,34.0,28.0,29.62,SW,228,8.0,-999.0,80,-99.99,,,-99.99,,2014-02-13 22:53:00,
2014-02-13 17:22:00,34.0,28.0,29.61,SW,227,6.0,-999.0,80,-99.99,,,-99.99,,2014-02-13 23:22:00,
2014-02-13 17:43:00,34.0,28.0,29.60,WSW,243,5.0,-999.0,80,-99.99,,,-99.99,,2014-02-13 23:43:00,
2014-02-13 17:53:00,34.0,28.0,29.60,SSW,204,4.0,-999.0,80,-99.99,,,-99.99,,2014-02-13 23:53:00,
2014-02-13 18:11:00,34.0,29.0,29.60,SSW,202,6.0,-999.0,81,-99.99,,,-99.99,,2014-02-14 00:11:00,
2014-02-13 18:21:00,34.0,29.0,29.60,SW,233,9.0,-999.0,81,-99.99,,,-99.99,,2014-02-14 00:21:00,
2014-02-13 18:42:00,35.0,30.0,29.61,WSW,239,9.0,-999.0,82,-99.99,,,-99.99,,2014-02-14 00:42:00,
2014-02-13 18:52:00,35.0,30.0,29.61,WSW,240,11.0,-999.0,82,-99.99,,,-99.99,,2014-02-14 00:52:00,
2014-02-13 19:22:00,31.0,25.0,29.64,WNW,300,15.0,-999.0,77,-99.99,,,-99.99,,2014-02-14 01:22:00,
2014-02-13 19:42:00,29.0,24.0,29.65,West,281,12.0,-999.0,80,-99.99,,,-99.99,,2014-02-14 01:42:00,
2014-02-13 19:52:00,28.0,21.0,29.66,WNW,286,13.0,-999.0,75,-99.99,,,-99.99,,2014-02-14 01:52:00,
2014-02-13 20:12:00,26.0,19.0,29.66,West,279,13.0,-999.0,74,-99.99,,,-99.99,,2014-02-14 02:12:00,
2014-02-13 20:22:00,24.0,16.0,29.67,WNW,303,15.0,-999.0,72,-99.99,,,-99.99,,2014-02-14 02:22:00,
2014-02-13 20:42:00,23.0,16.0,29.67,West,269,13.0,-999.0,74,-99.99,,,-99.99,,2014-02-14 02:42:00,
2014-02-13 20:52:00,22.0,15.0,29.67,West,259,15.0,-999.0,74,-99.99,,,-99.99,,2014-02-14 02:52:00,
2014-02-13 21:12:00,22.0,15.0,29.67,West,277,15.0,-999.0,74,-99.99,,,-99.99,,2014-02-14 03:12:00,
2014-02-13 21:22:00,21.0,14.0,29.69,WNW,289,15.0,-999.0,74,-99.99,,,-99.99,,2014-02-14 03:22:00,
2014-02-13 21:44:00,20.0,13.0,29.69,WNW,284,14.0,-999.0,75,-99.99,,,-99.99,,2014-02-14 03:44:00,
2014-02-13 21:54:00,20.0,14.0,29.69,WNW,288,16.0,-999.0,76,-99.99,,,-99.99,,2014-02-14 03:54:00,
2014-02-13 22:23:00,19.0,13.0,29.68,WNW,283,14.0,-999.0,76,-99.99,,,-99.99,,2014-02-14 04:23:00,
2014-02-13 22:52:00,18.0,12.0,29.69,WSW,254,10.0,-999.0,78,-99.99,,,-99.99,,2014-02-14 04:52:00,
2014-02-13 23:12:00,18.0,12.0,29.70,WNW,289,10.0,-999.0,78,-99.99,,,-99.99,,2014-02-14 05:12:00,
2014-02-13 23:22:00,17.0,11.0,29.70,West,271,10.0,-999.0,78,-99.99,,,-99.99,,2014-02-14 05:22:00,